sat.trackr.live / text

‹ back to catalog

GAOFEN-1 03

NORAD 43260 · 2018-031B

PAYLOAD ACTIVE UNKNOWN

§ Identity

Operator
Country
PRC
Launch date
2018-03-31
Launch site
TAISC
Launch vehicle
Mass (kg)
RCS (m²)

Purposes: earth_obs

External: N2YO · Heavens-Above · Gunter

§ Orbital elements

Epoch: 2026-05-25T04:00:13.298112Z

Period
97.53 min
Inclination
98.0527°
Eccentricity
0.0003448
Mean motion
14.76488946 rev/d
Perigee alt
638.0 km
Apogee alt
642.8 km
Semi-major
7,018.6 km
B*
8.9925e-5
RAAN
207.6173°
Arg perigee
130.1802°
Mean anomaly
229.9710°
Rev number
43,929

§ Raw data

GAOFEN-1 031 43260U 18031B   26145.16682058  .00000575  00000+0  89925-4 0  99952 43260  98.0527 207.6173 0003448 130.1802 229.9710 14.76488946439292

JSON: /api/v1/satellites/43260 · /tle

For live sub-satellite position, see the globe view (requires WebGL).

§ Visibility from observer

Set your observer location to see the next 7 days of passes ≥ 10°. The values pass through the URL so the page stays shareable.

No JS? Fill the form by hand. The geolocation button needs JavaScript.